Hourly Data Report for August 11, 2000

SHERBROOKE A
QUEBEC

45°26'00.000" N
71°41'00.000" W
241.40 m
7028124
71610
YSC

Download Data

Hourly Data (August 2000)
Hourly Data Report for August 11, 2000
TIME
LST
Temp Definition
°C
Dew Point Definition
°C
Rel Hum Definition
%
Precip. Amount Definition
mm

Wind Dir Definition
10's deg

Wind Spd Definition
km/h
Visibility Definition
km
Stn Press Definition
kPa
Hmdx Definition


Wind Chill Definition


Weather Definition


00:00 13.7 13.4 98     0 4.8 98.49      
01:00 14.3 13.9 97   8 6 15.0 98.49      
02:00 14.4 14.1 98   9 4 9.7 98.52      
03:00 14.3 13.8 97   7 7 15.0 98.55      
04:00 13.5 13.1 97   7 6 15.0 98.59      
05:00 13.1 12.8 98   6 9 15.0 98.59      
06:00 14.1 13.2 94   4 9 15.0 98.65      
07:00 16.3 14.5 89   3 7 24.1 98.69     Mainly Clear
08:00 18.8 15.4 81   8 6 24.1 98.72     Mainly Clear
09:00 21.3 16.9 76   8 6 24.1 98.69 27   Mainly Clear
10:00 22.3 16.0 68   18 4 24.1 98.65 27   Mainly Clear
11:00 23.7 16.5 64   31 7 24.1 98.62 29   Mainly Clear
12:00 25.0 15.6 56   1 7 24.1 98.59 29   Mostly Cloudy
13:00 25.4 16.4 57   5 9 24.1 98.55 30   Mostly Cloudy
14:00 23.4 14.1 56   1 13 24.1 98.55 27   Mostly Cloudy
15:00 22.6 13.0 55   1 13 24.1 98.59 25   Thunderstorms
16:00 21.4 14.1 63   4 6 24.1 98.59 25   Thunderstorms,Rain Showers
17:00 19.9 16.4 80   3 6 15.0 98.65     Moderate Rain
18:00 18.0 16.8 93   26 6 15.0 98.69      
19:00 17.3 16.4 94   14 4 15.0 98.72      
20:00 16.2 15.4 95     0 15.0 98.75      
21:00 15.0 14.6 97   21 6 1.1 98.79      
22:00 15.0 14.7 98     0 15.0 98.82      
23:00 14.9 14.6 98     0 6.4 98.82      

Notes on Data Quality.

Legend

  • E = Estimated
  • M = Missing
  • NA = Not Available*
  • [empty] = Indicates an unobserved value
Date modified: